Content
SEND FEEDBACK

Daily
Averages
Monthly
Summary
United States of America

WILMINGTON, NORTH CAROLINA


Home > North America > United States > North Carolina
Elevation: 72 feet     Latitude: 34 16N     Longitude: 077 54W

WEATHER
 
SELECT A DAY
Number of Records: 209,081;   Date Range: 1/1/95 - 9/16/14
 
SHARE

PRINT THIS DATA

[ ← Previous Day ]
WEATHER ALMANAC - JUNE 9, 2014
[ Next Day → ]
[ °C ]   °F
Weather ElementAverageHighLow
Temperature79 °F84.9 °F (4:38 pm)73 °F (2:53 am)
Dewpoint73 °F75.9 °F (12:38 pm)63 °F (1:53 am)
Humidity82.1 %90 % (9:01 am)68 % (1:53 am)
Barometer29.91 in29.94 in (9:53 am)29.89 in (4:32 am)
Wind Speed9.1 mph17.3 mph (5:53 pm)
Wind Gust21.9 mph (1:53 pm)
Weather ElementAverage
Visibility8.6 mi
Wind DirectionSSE (159.4 °)

Weather ElementTotal
Precipitation1.24 in
Cooling Degree Days14 (Base 65)
Growing Degree Days29 (Base 50)
Averaged from 54 records on June 9, 2014
WEATHER CONDITIONS BREAKOUT
WIND DIRECTION BREAKOUT
WEATHER BY HOUR - JUNE 9, 2014
[ °C ]   °F
Local TimeTemperatureDewpointHumidityBarometerVisibilityWind DirectionWind SpeedGust SpeedPrecipitationEventsConditions
1:53 AM73.9 °F63.0 °F68 %29.93 in10.0 miSE (140°)5.8 mphMostly Cloudy
2:53 AM73.0 °F64.0 °F73 %29.92 in10.0 miSSE (150°)3.5 mphMostly Cloudy
3:53 AM73.9 °F66.0 °F76 %29.90 in10.0 miSE (140°)3.5 mphMostly Cloudy
4:32 AM75.0 °F68.0 °F79 %29.89 in10.0 miSSE (150°)4.6 mphMostly Cloudy
4:41 AM75.0 °F68.0 °F79 %29.90 in10.0 miSSE (150°)4.6 mphScattered Clouds
4:53 AM73.9 °F68.0 °F82 %29.90 in10.0 miSSE (150°)4.6 mphScattered Clouds
5:06 AM75.0 °F69.1 °F82 %29.89 in10.0 miSSE (150°)3.5 mphMostly Cloudy
5:38 AM75.0 °F70.0 °F84 %29.89 in10.0 miSSE (150°)3.5 mphScattered Clouds
5:53 AM73.9 °F70.0 °F87 %29.89 in10.0 miSSE (160°)4.6 mphPartly Cloudy
6:08 AM75.0 °F71.1 °F87 %29.90 in10.0 miSSE (160°)3.5 mphMostly Cloudy
6:34 AM75.9 °F71.1 °F85 %29.90 in10.0 miSSE (160°)4.6 mphScattered Clouds
6:53 AM75.9 °F72.0 °F87 %29.90 in10.0 miSSE (150°)5.8 mphClear
7:53 AM79.0 °F73.0 °F82 %29.92 in10.0 miSouth (170°)10.4 mphScattered Clouds
8:22 AM80.1 °F73.0 °F79 %29.92 in10.0 miSouth (180°)8.1 mphMostly Cloudy
8:35 AM78.1 °F73.0 °F84 %29.92 in1.8 miSouth (180°)9.2 mph18.4 mph0.02 inRainHeavy Rain
8:38 AM78.1 °F73.9 °F87 %29.92 in0.8 miSouth (180°)13.8 mph18.4 mph0.08 inRainHeavy Rain
8:48 AM78.8 °F73.4 °F83 %29.92 in1.8 miSSE (160°)8.1 mph0.24 inRainLight Rain
8:53 AM78.1 °F73.9 °F87 %29.92 in10.0 miSouth (170°)6.9 mph0.24 inOvercast
9:01 AM78.1 °F75.0 °F90 %29.92 in10.0 miSSE (160°)5.8 mphOvercast
9:09 AM78.1 °F73.9 °F87 %29.93 in10.0 miSSE (160°)5.8 mphOvercast
9:23 AM79.0 °F75.0 °F88 %29.93 in10.0 miSSE (160°)9.2 mphOvercast
9:39 AM78.1 °F73.9 °F87 %29.93 in10.0 miSSE (160°)11.5 mphOvercast
9:50 AM78.8 °F73.4 °F83 %29.93 in10.0 miSouth (170°)9.2 mphOvercast
9:53 AM78.1 °F73.9 °F87 %29.94 in10.0 miSouth (170°)11.5 mphOvercast
10:53 AM80.6 °F73.4 °F79 %29.93 in10.0 miSSE (150°)6.9 mphOvercast
11:19 AM81.0 °F73.9 °F79 %29.93 in10.0 miSSE (160°)9.2 mph18.4 mphOvercast
11:44 AM79.0 °F75.0 °F88 %29.94 in2.0 miSSE (160°)10.4 mph17.3 mph0.01 inRainHeavy Rain
11:47 AM78.8 °F75.2 °F89 %29.94 in1.2 miSSE (150°)9.2 mph0.04 inRainHeavy Rain
11:51 AM78.8 °F75.2 °F89 %29.93 in0.8 miSE (140°)9.2 mph0.12 inRainHeavy Rain
11:53 AM78.1 °F75.0 °F90 %29.94 in0.8 miSE (130°)10.4 mph0.17 inRainHeavy Rain
11:58 AM78.1 °F75.0 °F90 %29.93 in1.5 miSSE (150°)9.2 mph0.04 inRainLight Rain
12:01 PM78.1 °F75.0 °F90 %29.93 in3.0 miSE (140°)9.2 mph0.04 inRainLight Rain
12:23 PM78.1 °F75.0 °F90 %29.94 in10.0 miSSE (150°)11.5 mph0.08 inRainLight Rain
12:38 PM80.1 °F75.9 °F87 %29.93 in10.0 miSSE (160°)10.4 mph0.08 inMostly Cloudy
12:53 PM82.0 °F75.9 °F82 %29.93 in10.0 miSouth (170°)11.5 mph19.6 mph0.08 inMostly Cloudy
1:02 PM82.0 °F75.9 °F82 %29.93 in10.0 miSouth (170°)13.8 mphMostly Cloudy
1:20 PM82.9 °F75.9 °F79 %29.92 in10.0 miSouth (170°)12.7 mphMostly Cloudy
1:53 PM82.9 °F75.0 °F77 %29.91 in10.0 miSouth (170°)16.1 mph21.9 mphMostly Cloudy
2:01 PM82.4 °F75.2 °F79 %29.91 in10.0 miSE (140°)11.5 mph18.4 mphScattered Clouds
2:08 PM84.0 °F75.0 °F74 %29.91 in10.0 miSE (140°)15.0 mph20.7 mphMostly Cloudy
3:49 PM82.4 °F73.4 °F74 %29.90 in10.0 miSSE (150°)12.7 mph21.9 mphMostly Cloudy
3:53 PM82.4 °F73.4 °F74 %29.90 in10.0 miSSE (150°)12.7 mph21.9 mphMostly Cloudy
4:18 PM82.0 °F73.9 °F76 %29.89 in10.0 miSE (140°)11.5 mph19.6 mphMostly Cloudy
4:38 PM84.9 °F75.0 °F72 %29.89 in10.0 miSSE (150°)12.7 mph20.7 mphScattered Clouds
4:53 PM84.0 °F75.0 °F74 %29.89 in10.0 miSSE (150°)13.8 mph19.6 mphScattered Clouds
5:04 PM84.0 °F75.0 °F74 %29.89 in10.0 miSSE (160°)13.8 mph21.9 mphMostly Cloudy
5:53 PM84.0 °F73.9 °F72 %29.89 in10.0 miSouth (190°)17.3 mphScattered Clouds
6:53 PM82.4 °F73.4 °F74 %29.89 in10.0 miSouth (190°)11.5 mphScattered Clouds
7:15 PM82.0 °F73.9 °F76 %29.89 in10.0 miSouth (170°)9.2 mphMostly Cloudy
7:53 PM81.0 °F73.0 °F77 %29.90 in10.0 miSouth (170°)9.2 mphClear
8:53 PM78.1 °F73.9 °F87 %29.91 in10.0 miSouth (170°)6.9 mphClear
9:53 PM78.1 °F73.9 °F87 %29.92 in10.0 miSouth (170°)9.2 mphClear
10:53 PM78.1 °F73.9 °F87 %29.94 in10.0 miSouth (180°)8.1 mphClear
11:53 PM77.0 °F73.9 °F90 %29.93 in10.0 miSouth (190°)6.9 mphClear
Hourly data recorded from KILM, located miles away from Wilmington, North Carolina







STORIES FROM OUR PARTNERS